Bangor International Airport Bangor US
ICAO: KBGR
IATA: BGR
Category: Large
Scheduled Services: Yes

Elevation: 192 ft
TransAlt. 18000 ft.

Airport Communications:
APP/DEP:118.925
ASOS:127.75
ATIS:127.75
CLNC DEL:135.9
GND:121.9
ARNG OPS:41.2
ANG OPS:31.1
RDO:122.2
TWR:120.7
UNICOM:122.95

KBGR Zoom In..

If you have problems with the map follow the link
https://www.worldairports.se/pages/airport.php?
ICAO=KBGR

Runways:

(A) RW 15 length 11440 ft width 200 ft
ILS 109.50 / hdg 153

(B) RW 33 length 11440 ft width 200 ft
ILS 109.50 / hdg 333

Location; KBGR
Day. 27 / Time. 04.53 Zulu
* Altimeter: 29.52
* Temperature: -02° c. -28.4°f.
* Wind from: 000° Speed 00 kn.
Dewpoint: -02° c.
Visibility: 10 Statute Miles.
Clouds: Clear (automated report).

KBGR 270453Z 00000KT 10SM CLR M02/M02 A2952 RMK AO2 SLP997 I1000 T10171017 400561017


Wind - Calm.

 
 
jpsmedia worldairports.se 2020   terms of use